Weather History for Farmington, MO

Change the Weather History Date:

Saturday, December 15, 2012

  Actual Average Record
Temperature  
Mean Temperature 50 °F -  
Max Temperature 57 °F 42 °F 59 °F (1998)
Min Temperature 42 °F 26 °F 14 °F (2004)
Degree Days  
Heating Degree Days 16    
Moisture  
Dew Point 46 °F    
Average Humidity 85    
Maximum Humidity 94    
Minimum Humidity 72    
Precipitation  
Precipitation 0.16 in - - ()
Sea Level Pressure  
Sea Level Pressure 29.78 in    
Wind  
Wind Speed 15 mph (South)    
Max Wind Speed 24 mph    
Max Gust Speed 32 mph    
Visibility 9 miles    
Events      
Averages and records for this station are not official NWS values.
T = Trace of Precipitation, MM = Missing Value Source: NWS Daily Summary

Daily Weather History Graph

Daily Weather History Graph

Search for Another Location

Airport:

Trip Planner

Search our weather history database for the weather conditions in past years. The results will help you decide how hot, cold, wet, or windy it might be!

Date:

Astronomy

Dec. 15, 2012 Rise Set
Actual Time 7:10 AM CST 4:44 PM CST
Civil Twilight 6:40 AM CST 5:13 PM CST
Nautical Twilight 6:07 AM CST 5:46 PM CST
Astronomical Twilight 5:35 AM CST 6:18 PM CST
Moon 9:04 AM CST (12/15) 7:46 PM CST (12/15)
Length of Visible Light 10h 32m
Length of Day
9h 33m
Waxing Crescent, 8% of the Moon is Illuminated
Dec 15
Waxing Crescent
Dec 19
First Quarter
Dec 28
Full
Jan 4
Last Quarter
Jan 11
New

Hourly Weather History & Observations

Time (CST) Temp. Windchill Dew Point Humidity Pressure Visibility Wind Dir Wind Speed Gust Speed Precip Events Conditions
12:15 AM 44.6 °F 39.2 °F 37.4 °F 76% 29.98 in 10.0 mi South 10.4 mph - 0.01 in   Overcast
12:35 AM 44.6 °F 37.4 °F 37.4 °F 76% 29.97 in 10.0 mi South 16.1 mph 19.6 mph 0.01 in   Overcast
12:55 AM 44.6 °F 37.4 °F 37.4 °F 76% 29.97 in 10.0 mi South 16.1 mph 20.7 mph 0.01 in   Overcast
1:15 AM 44.6 °F 37.4 °F 37.4 °F 76% 29.95 in 10.0 mi South 16.1 mph 23.0 mph N/A   Overcast
1:35 AM 44.6 °F 38.1 °F 37.4 °F 76% 29.97 in 10.0 mi South 13.8 mph 20.7 mph N/A   Overcast
1:55 AM 44.6 °F 38.4 °F 39.2 °F 81% 29.94 in 10.0 mi SSE 12.7 mph 18.4 mph 0.02 in   Overcast
2:15 AM 42.8 °F 37.0 °F 39.2 °F 87% 29.93 in 10.0 mi SSE 10.4 mph - 0.03 in   Overcast
2:35 AM 44.6 °F 38.1 °F 39.2 °F 81% 29.91 in 10.0 mi SSE 13.8 mph - 0.03 in   Overcast
2:55 AM 44.6 °F 37.8 °F 39.2 °F 81% 29.91 in 10.0 mi South 15.0 mph 23.0 mph 0.03 in   Overcast
3:15 AM 44.6 °F 36.4 °F 39.2 °F 81% 29.90 in 10.0 mi South 20.7 mph 25.3 mph N/A   Overcast
3:35 AM 44.6 °F 37.4 °F 41.0 °F 87% 29.88 in 10.0 mi SSE 16.1 mph 24.2 mph N/A   Overcast
3:55 AM 44.6 °F 36.9 °F 42.8 °F 93% 29.88 in 10.0 mi SSE 18.4 mph 25.3 mph N/A   Overcast
4:15 AM 44.6 °F 36.9 °F 42.8 °F 93% 29.85 in 10.0 mi SSE 18.4 mph 28.8 mph N/A   Overcast
4:35 AM 44.6 °F 37.2 °F 42.8 °F 93% 29.84 in 10.0 mi SSE 17.3 mph 25.3 mph N/A   Overcast
4:55 AM 46.4 °F 39.8 °F 42.8 °F 87% 29.87 in 9.0 mi South 16.1 mph 24.2 mph 0.05 in   Overcast
5:15 AM 46.4 °F 40.1 °F 42.8 °F 87% 29.85 in 10.0 mi South 15.0 mph 23.0 mph 0.04 in   Overcast
5:35 AM 46.4 °F 39.2 °F 42.8 °F 87% 29.84 in 10.0 mi South 18.4 mph 21.9 mph 0.04 in   Overcast
5:55 AM 46.4 °F 39.0 °F 44.6 °F 93% 29.84 in 9.0 mi South 19.6 mph 27.6 mph 0.04 in   Overcast
6:15 AM 46.4 °F 39.2 °F 44.6 °F 93% 29.82 in 10.0 mi South 18.4 mph 27.6 mph 0.01 in   Overcast
6:35 AM 46.4 °F 38.7 °F 44.6 °F 93% 29.82 in 9.0 mi South 20.7 mph 26.5 mph 0.01 in   Overcast
6:55 AM 46.4 °F 39.2 °F 44.6 °F 93% 29.81 in 8.0 mi South 18.4 mph 26.5 mph 0.01 in   Overcast
7:15 AM 48.2 °F - 44.6 °F 87% 29.80 in 10.0 mi South 24.2 mph 29.9 mph N/A   Overcast
7:35 AM 48.2 °F - 44.6 °F 87% 29.80 in 2.5 mi South 21.9 mph 29.9 mph N/A   Overcast
7:55 AM 48.2 °F - 44.6 °F 87% 29.81 in 1.8 mi South 16.1 mph 21.9 mph N/A   Overcast
8:15 AM 48.2 °F - 46.4 °F 93% 29.80 in 4.0 mi South 18.4 mph 25.3 mph N/A   Overcast
8:35 AM 48.2 °F - 46.4 °F 93% 29.78 in 2.5 mi South 21.9 mph 26.5 mph N/A   Overcast
8:55 AM 48.2 °F - 46.4 °F 93% 29.79 in 4.0 mi South 21.9 mph 27.6 mph N/A   Overcast
9:15 AM 48.2 °F - 46.4 °F 93% 29.78 in 5.0 mi South 18.4 mph 27.6 mph N/A   Overcast
9:35 AM 48.2 °F - 46.4 °F 93% 29.77 in 8.0 mi South 20.7 mph 29.9 mph N/A   Overcast
9:55 AM 50.0 °F - 48.2 °F 94% 29.78 in 10.0 mi South 16.1 mph 29.9 mph N/A   Overcast
10:15 AM 50.0 °F - 48.2 °F 94% 29.77 in 10.0 mi South 19.6 mph 23.0 mph N/A   Overcast
10:35 AM 51.8 °F - 48.2 °F 88% 29.76 in 10.0 mi South 20.7 mph 28.8 mph N/A   Overcast
10:55 AM 51.8 °F - 48.2 °F 88% 29.75 in 10.0 mi South 16.1 mph 26.5 mph N/A   Overcast
11:15 AM 53.6 °F - 48.2 °F 82% 29.74 in 10.0 mi South 17.3 mph 24.2 mph N/A   Overcast
11:35 AM 53.6 °F - 48.2 °F 82% 29.73 in 10.0 mi South 18.4 mph 25.3 mph N/A   Overcast
11:55 AM 53.6 °F - 48.2 °F 82% 29.72 in 10.0 mi South 19.6 mph 27.6 mph N/A   Overcast
12:15 PM 55.4 °F - 48.2 °F 77% 29.70 in 10.0 mi South 23.0 mph 32.2 mph N/A   Overcast
12:35 PM 55.4 °F - 48.2 °F 77% 29.70 in 10.0 mi South 21.9 mph 31.1 mph N/A   Overcast
12:55 PM 57.2 °F - 48.2 °F 72% 29.69 in 10.0 mi South 20.7 mph 32.2 mph N/A   Overcast
1:15 PM 57.2 °F - 48.2 °F 72% 29.68 in 10.0 mi South 21.9 mph 31.1 mph N/A   Overcast
1:35 PM 57.2 °F - 48.2 °F 72% 29.68 in 10.0 mi SSW 18.4 mph 24.2 mph N/A   Overcast
1:55 PM 57.2 °F - 48.2 °F 72% 29.67 in 10.0 mi South 16.1 mph 26.5 mph N/A   Mostly Cloudy
2:15 PM 57.2 °F - 48.2 °F 72% 29.67 in 10.0 mi South 18.4 mph 23.0 mph N/A   Mostly Cloudy
2:35 PM 57.2 °F - 48.2 °F 72% 29.67 in 10.0 mi South 19.6 mph 24.2 mph N/A   Overcast
2:55 PM 57.2 °F - 50.0 °F 77% 29.67 in 10.0 mi South 20.7 mph - N/A   Mostly Cloudy
3:15 PM 57.2 °F - 48.2 °F 72% 29.67 in 10.0 mi South 15.0 mph 21.9 mph N/A   Mostly Cloudy
3:35 PM 57.2 °F - 48.2 °F 72% 29.68 in 10.0 mi South 18.4 mph 23.0 mph N/A   Scattered Clouds
3:55 PM 55.4 °F - 50.0 °F 82% 29.68 in 10.0 mi South 13.8 mph 19.6 mph N/A   Clear
4:15 PM 55.4 °F - 50.0 °F 82% 29.69 in 10.0 mi South 11.5 mph - N/A   Clear
4:35 PM 55.4 °F - 50.0 °F 82% 29.69 in 10.0 mi South 9.2 mph - N/A   Clear
4:55 PM 53.6 °F - 48.2 °F 82% 29.69 in 10.0 mi South 8.1 mph - N/A   Clear
5:15 PM 53.6 °F - 48.2 °F 82% 29.69 in 10.0 mi South 9.2 mph - N/A   Clear
5:35 PM 53.6 °F - 48.2 °F 82% 29.70 in 10.0 mi South 10.4 mph - N/A   Partly Cloudy
5:55 PM 53.6 °F - 50.0 °F 88% 29.70 in 10.0 mi South 10.4 mph 17.3 mph N/A   Scattered Clouds
6:15 PM 53.6 °F - 48.2 °F 82% 29.71 in 10.0 mi South 10.4 mph - N/A   Partly Cloudy
6:35 PM 53.6 °F - 50.0 °F 88% 29.72 in 10.0 mi South 11.5 mph - N/A   Mostly Cloudy
6:55 PM 53.6 °F - 50.0 °F 88% 29.73 in 10.0 mi South 13.8 mph - N/A   Overcast
7:15 PM 53.6 °F - 50.0 °F 88% 29.74 in 10.0 mi South 11.5 mph - N/A   Mostly Cloudy
7:35 PM 53.6 °F - 50.0 °F 88% 29.74 in 10.0 mi South 13.8 mph - N/A   Mostly Cloudy
7:55 PM 53.6 °F - 50.0 °F 88% 29.74 in 10.0 mi South 15.0 mph 18.4 mph N/A   Partly Cloudy
8:15 PM 53.6 °F - 51.8 °F 94% 29.74 in 10.0 mi SSW 13.8 mph 18.4 mph N/A   Partly Cloudy
8:35 PM 53.6 °F - 51.8 °F 94% 29.75 in 10.0 mi SSW 11.5 mph 16.1 mph N/A   Clear
8:55 PM 53.6 °F - 51.8 °F 94% 29.76 in 10.0 mi SSW 11.5 mph - N/A   Clear
9:15 PM 53.6 °F - 50.0 °F 88% 29.75 in 10.0 mi SSW 10.4 mph - N/A   Clear
9:35 PM 53.6 °F - 50.0 °F 88% 29.76 in 10.0 mi SSW 10.4 mph - N/A   Clear
9:55 PM 53.6 °F - 50.0 °F 88% 29.75 in 10.0 mi SSW 10.4 mph - N/A   Clear
10:15 PM 53.6 °F - 50.0 °F 88% 29.76 in 10.0 mi SSW 10.4 mph - N/A   Clear
10:35 PM 53.6 °F - 50.0 °F 88% 29.75 in 10.0 mi SSW 9.2 mph - N/A   Clear
10:55 PM 51.8 °F - 50.0 °F 94% 29.75 in 10.0 mi SSW 9.2 mph - N/A   Clear
11:15 PM 51.8 °F - 50.0 °F 94% 29.76 in 10.0 mi SSW 9.2 mph - N/A   Clear
11:35 PM 51.8 °F - 48.2 °F 88% 29.76 in 10.0 mi SSW 9.2 mph - N/A   Clear
11:55 PM 51.8 °F - 48.2 °F 88% 29.76 in 10.0 mi SSW 8.1 mph - N/A   Clear